Location: Ostrava
(49.8330°N, 18.2830°E)
Time: 06:30:12
(UTC+01:00)

Envisat - Visible Passes

Search period start: 18 January 2022 00:00
Search period end: 28 January 2022 00:00
Orbit: 764 x 766 km, 98.2° (Epoch: 17 January)

Date Brightness Start Highest point End Pass type
(mag) Time Alt. Az. Time Alt. Az. Time Alt. Az.
18 Jan 5.3 03:38:43 10° NE 03:42:32 21° E 03:46:19 10° SE visible
18 Jan 2.9 05:16:56 10° N 05:21:58 62° WNW 05:26:58 10° SSW visible
18 Jan 4.7 06:58:11 10° NNW 07:00:01 12° NW 07:01:52 10° WNW visible
19 Jan 3.2 04:40:01 10° NNE 04:45:07 67° ESE 04:50:10 10° S visible
19 Jan 4.1 06:19:54 10° N 06:23:40 22° WNW 06:27:27 10° WSW visible
20 Jan 4.5 04:03:27 10° NNE 04:08:04 33° E 04:12:38 10° SSE visible
20 Jan 3.4 05:42:26 10° N 05:47:08 39° WNW 05:51:49 10° SW visible
20 Jan 5.8 17:03:06 10° SW 17:06:42 19° W 17:10:18 10° NW visible
21 Jan 5.6 03:27:32 10° NE 03:30:48 17° E 03:34:03 10° SE visible
21 Jan 2.8 05:05:19 10° NNE 05:10:25 77° WNW 05:15:29 10° SSW visible
21 Jan 4.6 06:45:58 10° NNW 06:48:37 14° NW 06:51:15 10° W visible
22 Jan 3.6 04:28:29 10° NNE 04:33:30 54° E 04:38:27 10° S visible
22 Jan 3.9 06:08:04 10° N 06:12:12 26° WNW 06:16:20 10° WSW visible
22 Jan 6.2 17:30:40 10° WSW 17:32:21 11° W 17:34:01 10° WNW visible
23 Jan 4.9 03:52:04 10° NE 03:56:22 27° E 04:00:39 10° SSE visible
23 Jan 3.2 05:30:44 10° N 05:35:36 48° WNW 05:40:28 10° SW visible
24 Jan 5.8 03:16:33 10° NE 03:19:02 14° E 03:21:32 10° ESE visible
24 Jan 2.9 04:53:42 10° NNE 04:58:50 87° ESE 05:03:55 10° SSW visible
24 Jan 4.4 06:33:58 10° NNW 06:37:11 17° NW 06:40:24 10° W visible
25 Jan 4.0 04:16:58 10° NNE 04:21:51 44° E 04:26:40 10° S visible
25 Jan 3.7 05:56:18 10° N 06:00:43 31° WNW 06:05:07 10° WSW visible
25 Jan 6.0 17:17:49 10° WSW 17:20:34 15° W 17:23:21 10° NW visible
26 Jan 5.2 03:40:43 10° NE 03:44:40 22° E 03:48:35 10° SE visible
26 Jan 3.0 05:19:03 10° N 05:24:04 59° WNW 05:29:02 10° SSW visible
27 Jan 6.0 03:06:10 10° ENE 03:07:16 11° E 03:08:22 10° E visible
27 Jan 3.2 04:42:07 10° NNE 04:47:13 72° ESE 04:52:17 10° S visible
27 Jan 4.2 06:22:03 10° NNW 06:25:44 20° WNW 06:29:24 10° WSW visible
